Orbital Elements at Epoch 2459200.5 (2020-Dec-17.0) TDB
Reference: JPL 16 (heliocentric ecliptic J2000)
Element | Value | Uncertainty (1-sigma) | Units |
e | .2124577837552533 | 5.5537e-08 | |
a | 3.162231252559495 | 2.8512e-08 | au |
q | 2.490390608919106 | 1.7189e-07 | au |
i | 10.65915693894958 | 6.305e-06 | deg |
node | 73.38237474642501 | 2.9785e-05 | deg |
peri | 350.3055525454282 | 3.2793e-05 | deg |
M | 265.1463424257075 | 1.5841e-05 | deg |
tp | 2459741.678392005288 (2022-Jun-11.17839201) | 9.4957e-05 | TDB |
period | 2053.945267944053 5.62 | 2.7779e-05 7.605e-08 | d yr |
n | .1752724406139365 | 2.3705e-09 | deg/d |
Q | 3.834071896199884 | 3.457e-08 | au |
|
| | Orbit Determination Parameters
Additional Information
|